LOT830 EDDC-EPWA

Flight info

Callsign LOT830
Flight time 0h 59m
Altitude 31000
Route OSKAN9E OSKAN M748 OLBIK L735 GOVEN/N0448F350 L979 KELOD L980 ADVAB P150 BIMPA
Aircraft B738/M-SDE2E3FGHIRWXY/LB1

Departure

Time 2026-05-05 20:25
Airport Dresden Airport (EDDC)

Arrival

Time 2026-05-05 21:25
Airport Warsaw Chopin Airport (EPWA)
Time Latitude Longitude Altitude Speed Heading
2026-05-05 20:05 51.12627 13.76542 747 ft 0 kts 221°
2026-05-05 20:05 51.12630 13.76545 747 ft 0 kts 221°
2026-05-05 20:18 51.12631 13.76547 747 ft 2 kts 221°
2026-05-05 20:19 51.12651 13.76574 750 ft 4 kts 221°
2026-05-05 20:19 51.12671 13.76601 747 ft 3 kts 221°
2026-05-05 20:19 51.12685 13.76625 749 ft 4 kts 257°
2026-05-05 20:19 51.12680 13.76659 749 ft 3 kts 310°
2026-05-05 20:20 51.12664 13.76689 749 ft 2 kts 311°
2026-05-05 20:20 51.12663 13.76691 749 ft 0 kts 311°
2026-05-05 20:22 51.12664 13.76690 749 ft 1 kts 311°
2026-05-05 20:22 51.12682 13.76656 748 ft 8 kts 311°
2026-05-05 20:22 51.12735 13.76559 748 ft 15 kts 311°
2026-05-05 20:22 51.12793 13.76447 751 ft 11 kts 294°
2026-05-05 20:23 51.12756 13.76344 753 ft 11 kts 221°
2026-05-05 20:23 51.12698 13.76263 755 ft 11 kts 221°
2026-05-05 20:23 51.12638 13.76181 757 ft 13 kts 221°
2026-05-05 20:23 51.12545 13.76052 757 ft 22 kts 221°
2026-05-05 20:24 51.12420 13.75880 762 ft 25 kts 221°
2026-05-05 20:24 51.12384 13.75707 763 ft 19 kts 295°
2026-05-05 20:24 51.12463 13.75511 763 ft 18 kts 330°
2026-05-05 20:24 51.12563 13.75603 762 ft 36 kts 41°
2026-05-05 20:25 51.13018 13.76226 754 ft 134 kts 41°
2026-05-05 20:25 51.13885 13.77417 1213 ft 180 kts 41°
2026-05-05 20:25 51.14799 13.78725 2582 ft 169 kts 45°
2026-05-05 20:25 51.15681 13.79979 3642 ft 177 kts 44°
2026-05-05 20:26 51.16696 13.81405 3990 ft 210 kts 44°
2026-05-05 20:26 51.17873 13.83033 4325 ft 235 kts 43°
2026-05-05 20:26 51.19170 13.84815 4732 ft 259 kts 43°
2026-05-05 20:26 51.20759 13.86307 5503 ft 275 kts 16°
2026-05-05 20:27 51.22683 13.86304 6455 ft 284 kts 344°
2026-05-05 20:27 51.24404 13.84747 7417 ft 287 kts 321°
2026-05-05 20:27 51.26160 13.83204 8315 ft 294 kts 348°
2026-05-05 20:27 51.28203 13.83021 9275 ft 296 kts
2026-05-05 20:28 51.30287 13.82910 10131 ft 304 kts 356°
2026-05-05 20:28 51.32396 13.82122 10407 ft 331 kts 331°
2026-05-05 20:28 51.34296 13.79840 10668 ft 354 kts 316°
2026-05-05 20:28 51.36136 13.77114 11281 ft 365 kts 315°
2026-05-05 20:29 51.38007 13.74327 12127 ft 369 kts 315°
2026-05-05 20:29 51.39912 13.71548 13021 ft 372 kts 316°
2026-05-05 20:29 51.41864 13.68764 13835 ft 377 kts 316°
2026-05-05 20:29 51.43843 13.65972 14580 ft 381 kts 316°
2026-05-05 20:30 51.45846 13.63154 15335 ft 385 kts 316°
2026-05-05 20:30 51.47869 13.60303 16073 ft 389 kts 316°
2026-05-05 20:30 51.49907 13.57422 16829 ft 392 kts 316°
2026-05-05 20:30 51.51963 13.54508 17570 ft 396 kts 316°
2026-05-05 20:31 51.54042 13.51560 18223 ft 401 kts 316°
2026-05-05 20:31 51.56146 13.48574 18842 ft 405 kts 316°
2026-05-05 20:31 51.58256 13.45634 19486 ft 409 kts 320°
2026-05-05 20:31 51.60798 13.43500 20089 ft 419 kts 342°
2026-05-05 20:32 51.63699 13.42923 20737 ft 425 kts
2026-05-05 20:32 51.66601 13.43925 21327 ft 431 kts 22°
2026-05-05 20:32 51.69155 13.46462 21863 ft 435 kts 43°
2026-05-05 20:32 51.71062 13.50241 22390 ft 437 kts 63°
2026-05-05 20:33 51.72375 13.54663 22962 ft 439 kts 68°
2026-05-05 20:33 51.73611 13.59189 23452 ft 444 kts 68°
2026-05-05 20:33 51.74854 13.63803 23798 ft 450 kts 68°
2026-05-05 20:33 51.76123 13.68456 24250 ft 454 kts 68°
2026-05-05 20:34 51.77418 13.73134 24727 ft 456 kts 67°
2026-05-05 20:34 51.78728 13.77813 25151 ft 459 kts 67°
2026-05-05 20:34 51.80053 13.82527 25589 ft 463 kts 67°
2026-05-05 20:34 51.81389 13.87278 26021 ft 465 kts 67°
2026-05-05 20:35 51.82732 13.92063 26446 ft 468 kts 67°
2026-05-05 20:35 51.84057 13.96802 26859 ft 471 kts 67°
2026-05-05 20:35 51.85414 14.01642 27257 ft 474 kts 67°
2026-05-05 20:35 51.86797 14.06501 27652 ft 476 kts 66°
2026-05-05 20:36 51.88195 14.11393 28044 ft 479 kts 66°
2026-05-05 20:36 51.89591 14.16298 28429 ft 482 kts 66°
2026-05-05 20:36 51.90985 14.21257 28791 ft 485 kts 67°
2026-05-05 20:36 51.92368 14.26262 29053 ft 489 kts 67°
2026-05-05 20:37 51.93758 14.31333 29396 ft 492 kts 67°
2026-05-05 20:37 51.94679 14.34703 29644 ft 493 kts 67°
2026-05-05 20:37 51.96541 14.41519 30088 ft 495 kts 67°
2026-05-05 20:37 51.97936 14.46630 30451 ft 496 kts 67°
2026-05-05 20:38 51.99312 14.51675 30877 ft 494 kts 67°
2026-05-05 20:38 52.00701 14.56774 31315 ft 492 kts 67°
2026-05-05 20:38 52.02082 14.61853 31710 ft 491 kts 68°
2026-05-05 20:38 52.03460 14.66933 32085 ft 491 kts 68°
2026-05-05 20:39 52.04834 14.72014 32474 ft 490 kts 68°
2026-05-05 20:39 52.06130 14.77134 32871 ft 488 kts 73°
2026-05-05 20:39 52.07080 14.82430 33259 ft 486 kts 77°
2026-05-05 20:39 52.07906 14.87773 33536 ft 488 kts 78°
2026-05-05 20:40 52.08692 14.93071 33774 ft 490 kts 78°
2026-05-05 20:40 52.09498 14.98456 34099 ft 489 kts 78°
2026-05-05 20:40 52.10317 15.03808 34473 ft 487 kts 77°
2026-05-05 20:40 52.11148 15.09144 34794 ft 487 kts 77°
2026-05-05 20:41 52.11990 15.14487 35066 ft 487 kts 77°
2026-05-05 20:41 52.12831 15.19820 35340 ft 487 kts 77°
2026-05-05 20:41 52.13673 15.25168 35647 ft 487 kts 77°
2026-05-05 20:41 52.14510 15.30506 35953 ft 486 kts 77°
2026-05-05 20:42 52.15342 15.35844 36242 ft 486 kts 77°
2026-05-05 20:42 52.16172 15.41187 36507 ft 486 kts 77°
2026-05-05 20:42 52.16998 15.46520 36780 ft 486 kts 77°
2026-05-05 20:42 52.17823 15.51853 37077 ft 485 kts 77°
2026-05-05 20:43 52.18647 15.57189 37348 ft 485 kts 77°
2026-05-05 20:43 52.19469 15.62529 37611 ft 485 kts 77°
2026-05-05 20:43 52.20288 15.67860 37866 ft 485 kts 77°
2026-05-05 20:43 52.21104 15.73187 38141 ft 484 kts 77°
2026-05-05 20:44 52.21917 15.78515 38383 ft 484 kts 77°
2026-05-05 20:44 52.22659 15.83869 38591 ft 483 kts 83°
2026-05-05 20:44 52.22895 15.87476 38708 ft 482 kts 89°
2026-05-05 20:44 52.22737 15.94673 38959 ft 478 kts 101°
2026-05-05 20:45 52.21402 16.05264 39273 ft 477 kts 104°
2026-05-05 20:45 52.20702 16.10552 39433 ft 477 kts 104°
2026-05-05 20:45 52.20034 16.15857 39626 ft 476 kts 103°
2026-05-05 20:46 52.19596 16.19422 39765 ft 476 kts 103°
2026-05-05 20:46 52.18964 16.24644 39948 ft 475 kts 103°
2026-05-05 20:46 52.18328 16.29933 40119 ft 475 kts 103°
2026-05-05 20:46 52.17692 16.35225 40270 ft 475 kts 103°
2026-05-05 20:47 52.17055 16.40503 40421 ft 475 kts 103°
2026-05-05 20:47 52.16415 16.45779 40568 ft 474 kts 103°
2026-05-05 20:47 52.15771 16.51048 40745 ft 473 kts 103°
2026-05-05 20:47 52.15135 16.56243 40815 ft 474 kts 103°
2026-05-05 20:48 52.13832 16.66811 40823 ft 476 kts 103°
2026-05-05 20:48 52.13476 16.77541 40818 ft 477 kts 84°
2026-05-05 20:49 52.14544 16.88200 40819 ft 476 kts 81°
2026-05-05 20:49 52.15683 16.98805 40800 ft 475 kts 81°
2026-05-05 20:50 52.16754 17.09416 40818 ft 474 kts 82°
2026-05-05 20:50 52.17784 17.20010 40812 ft 473 kts 82°
2026-05-05 20:51 52.18804 17.30618 40821 ft 473 kts 82°
2026-05-05 20:51 52.19813 17.41160 40815 ft 474 kts 82°
2026-05-05 20:52 52.20820 17.51792 40808 ft 475 kts 82°
2026-05-05 20:52 52.21817 17.62458 40818 ft 476 kts 82°
2026-05-05 20:53 52.22810 17.73156 40811 ft 477 kts 82°
2026-05-05 20:53 52.23779 17.83815 40821 ft 478 kts 82°
2026-05-05 20:54 52.24258 17.89260 40678 ft 481 kts 83°
2026-05-05 20:54 52.24730 17.94634 40155 ft 487 kts 82°
2026-05-05 20:54 52.25208 18.00085 39601 ft 485 kts 82°
2026-05-05 20:54 52.25689 18.05537 38983 ft 486 kts 82°
2026-05-05 20:55 52.26174 18.11003 38340 ft 486 kts 82°
2026-05-05 20:55 52.26657 18.16460 37614 ft 485 kts 82°
2026-05-05 20:55 52.27138 18.21911 37009 ft 482 kts 82°
2026-05-05 20:55 52.27612 18.27315 36392 ft 480 kts 83°
2026-05-05 20:56 52.28081 18.32704 35774 ft 478 kts 83°
2026-05-05 20:56 52.28545 18.38075 35099 ft 478 kts 83°
2026-05-05 20:56 52.29007 18.43452 34429 ft 478 kts 83°
2026-05-05 20:56 52.29467 18.48846 33730 ft 479 kts 83°
2026-05-05 20:57 52.29921 18.54177 32921 ft 480 kts 83°
2026-05-05 20:57 52.30379 18.59591 32146 ft 481 kts 83°
2026-05-05 20:57 52.30834 18.64994 31363 ft 481 kts 83°
2026-05-05 20:57 52.31289 18.70413 30625 ft 480 kts 83°
2026-05-05 20:58 52.31742 18.75822 29971 ft 478 kts 83°
2026-05-05 20:58 52.32190 18.81178 29327 ft 473 kts 83°
2026-05-05 20:58 52.32631 18.86477 28717 ft 467 kts 83°
2026-05-05 20:58 52.33066 18.91724 28131 ft 462 kts 83°
2026-05-05 20:59 52.33479 18.96895 27543 ft 457 kts 84°
2026-05-05 20:59 52.33781 19.02037 26971 ft 451 kts 86°
2026-05-05 20:59 52.34022 19.07135 26381 ft 447 kts 87°
2026-05-05 20:59 52.34256 19.12189 25826 ft 444 kts 87°
2026-05-05 21:00 52.34505 19.17201 25253 ft 440 kts 86°
2026-05-05 21:00 52.34764 19.22172 24702 ft 437 kts 86°
2026-05-05 21:00 52.35018 19.27099 24157 ft 433 kts 87°
2026-05-05 21:00 52.35258 19.31938 23615 ft 430 kts 87°
2026-05-05 21:01 52.35494 19.36799 22981 ft 428 kts 87°
2026-05-05 21:01 52.35726 19.41643 22367 ft 424 kts 87°
2026-05-05 21:01 52.35955 19.46427 21788 ft 420 kts 87°
2026-05-05 21:01 52.36180 19.51173 21228 ft 416 kts 87°
2026-05-05 21:02 52.36403 19.55878 20686 ft 412 kts 87°
2026-05-05 21:02 52.36621 19.60536 20135 ft 409 kts 87°
2026-05-05 21:02 52.36837 19.65167 19600 ft 406 kts 87°
2026-05-05 21:02 52.37049 19.69772 19092 ft 403 kts 87°
2026-05-05 21:03 52.37256 19.74276 18933 ft 390 kts 87°
2026-05-05 21:03 52.37598 19.78615 18699 ft 382 kts 74°
2026-05-05 21:03 52.38550 19.82646 18441 ft 377 kts 68°
2026-05-05 21:03 52.39553 19.86552 18154 ft 378 kts 68°
2026-05-05 21:04 52.40575 19.90559 17835 ft 382 kts 68°
2026-05-05 21:04 52.41591 19.94596 17508 ft 384 kts 69°
2026-05-05 21:04 52.42593 19.98629 17182 ft 381 kts 69°
2026-05-05 21:04 52.43581 20.02645 16888 ft 379 kts 69°
2026-05-05 21:05 52.44560 20.06648 16593 ft 377 kts 69°
2026-05-05 21:05 52.45532 20.10634 16316 ft 376 kts 69°
2026-05-05 21:05 52.46498 20.14606 16006 ft 375 kts 69°
2026-05-05 21:05 52.47461 20.18571 15719 ft 374 kts 69°
2026-05-05 21:06 52.48422 20.22533 15431 ft 372 kts 70°
2026-05-05 21:06 52.49372 20.26457 15147 ft 366 kts 70°
2026-05-05 21:06 52.50275 20.30329 14856 ft 359 kts 75°
2026-05-05 21:06 52.50515 20.34322 14548 ft 347 kts 99°
2026-05-05 21:07 52.49941 20.38074 14300 ft 333 kts 118°
2026-05-05 21:07 52.48896 20.41354 14072 ft 324 kts 124°
2026-05-05 21:07 52.47772 20.44524 13805 ft 319 kts 125°
2026-05-05 21:07 52.46647 20.47647 13566 ft 316 kts 125°
2026-05-05 21:08 52.45538 20.50740 13301 ft 313 kts 125°
2026-05-05 21:08 52.44446 20.53818 13036 ft 311 kts 124°
2026-05-05 21:08 52.43369 20.56869 12785 ft 308 kts 124°
2026-05-05 21:08 52.42309 20.59890 12544 ft 306 kts 124°
2026-05-05 21:09 52.41254 20.62898 12310 ft 304 kts 124°
2026-05-05 21:09 52.40203 20.65893 12075 ft 302 kts 124°
2026-05-05 21:09 52.39128 20.68950 11840 ft 301 kts 124°
2026-05-05 21:09 52.38081 20.71924 11570 ft 302 kts 124°
2026-05-05 21:10 52.37027 20.74910 11301 ft 303 kts 124°
2026-05-05 21:10 52.35971 20.77899 11024 ft 304 kts 124°
2026-05-05 21:10 52.34909 20.80905 10743 ft 305 kts 123°
2026-05-05 21:10 52.33844 20.83915 10471 ft 306 kts 123°
2026-05-05 21:11 52.32792 20.86887 10184 ft 306 kts 123°
2026-05-05 21:11 52.31717 20.89921 9900 ft 303 kts 123°
2026-05-05 21:11 52.30689 20.92827 9716 ft 292 kts 123°
2026-05-05 21:11 52.29686 20.95655 9355 ft 285 kts 124°
2026-05-05 21:12 52.28700 20.98424 9090 ft 279 kts 124°
2026-05-05 21:12 52.27722 21.01164 8827 ft 278 kts 125°
2026-05-05 21:12 52.26460 21.03455 8546 ft 268 kts 151°
2026-05-05 21:12 52.24834 21.04928 8341 ft 268 kts 156°
2026-05-05 21:13 52.23165 21.06337 8087 ft 270 kts 156°
2026-05-05 21:13 52.21524 21.07726 7844 ft 269 kts 156°
2026-05-05 21:13 52.19871 21.09139 7595 ft 267 kts 156°
2026-05-05 21:13 52.18254 21.10529 7349 ft 260 kts 156°
2026-05-05 21:14 52.16661 21.11898 7120 ft 257 kts 156°
2026-05-05 21:14 52.15089 21.13251 6876 ft 254 kts 156°
2026-05-05 21:14 52.13536 21.14605 6652 ft 251 kts 156°
2026-05-05 21:14 52.12003 21.15949 6428 ft 249 kts 156°
2026-05-05 21:15 52.10487 21.17278 6210 ft 246 kts 156°
2026-05-05 21:15 52.08984 21.18593 5979 ft 244 kts 156°
2026-05-05 21:15 52.07508 21.19885 5915 ft 241 kts 156°
2026-05-05 21:15 52.06017 21.21187 5727 ft 244 kts 156°
2026-05-05 21:16 52.04522 21.22491 5509 ft 243 kts 156°
2026-05-05 21:16 52.03058 21.23767 5296 ft 240 kts 156°
2026-05-05 21:16 52.01597 21.25041 5087 ft 237 kts 156°
2026-05-05 21:16 52.00152 21.26296 4972 ft 233 kts 156°
2026-05-05 21:17 51.98687 21.27394 4714 ft 234 kts 168°
2026-05-05 21:17 51.97074 21.27636 4367 ft 226 kts 194°
2026-05-05 21:17 51.95747 21.26696 4408 ft 200 kts 218°
2026-05-05 21:17 51.94740 21.25183 3985 ft 199 kts 226°
2026-05-05 21:18 51.93744 21.23511 3436 ft 205 kts 227°
2026-05-05 21:18 51.92906 21.21807 3351 ft 189 kts 240°
2026-05-05 21:18 51.92438 21.19870 3128 ft 183 kts 256°
2026-05-05 21:18 51.92310 21.17865 3047 ft 170 kts 270°
2026-05-05 21:19 51.92554 21.15990 3222 ft 175 kts 288°
2026-05-05 21:19 51.93301 21.14394 3394 ft 188 kts 323°
2026-05-05 21:19 51.94588 21.13731 3493 ft 198 kts 345°
2026-05-05 21:19 51.95943 21.13443 3727 ft 195 kts 349°
2026-05-05 21:20 51.97306 21.13245 3829 ft 202 kts 347°
2026-05-05 21:20 51.98651 21.12680 3832 ft 195 kts 332°
2026-05-05 21:20 51.99866 21.11827 3787 ft 186 kts 328°
2026-05-05 21:20 52.00994 21.10927 3713 ft 177 kts 326°
2026-05-05 21:21 52.02084 21.09989 3490 ft 177 kts 324°
2026-05-05 21:21 52.03128 21.08937 3232 ft 170 kts 320°
2026-05-05 21:21 52.04096 21.07972 3069 ft 160 kts 322°
2026-05-05 21:21 52.05052 21.07138 2761 ft 151 kts 324°
2026-05-05 21:22 52.05961 21.06375 2443 ft 146 kts 322°
2026-05-05 21:22 52.06844 21.05573 2207 ft 145 kts 321°
2026-05-05 21:22 52.07713 21.04661 1952 ft 151 kts 323°
2026-05-05 21:22 52.08602 21.03743 1737 ft 151 kts 329°
2026-05-05 21:23 52.09513 21.02902 1564 ft 150 kts 331°
2026-05-05 21:23 52.10432 21.02096 1336 ft 151 kts 335°
2026-05-05 21:23 52.11334 21.01269 1206 ft 143 kts 338°
2026-05-05 21:23 52.12229 21.00508 1068 ft 148 kts 338°
2026-05-05 21:24 52.13115 20.99703 921 ft 145 kts 335°
2026-05-05 21:24 52.13993 20.98946 699 ft 139 kts 336°
2026-05-05 21:24 52.14841 20.98219 513 ft 139 kts 333°
2026-05-05 21:24 52.15695 20.97473 353 ft 140 kts 334°
2026-05-05 21:25 52.16487 20.96799 337 ft 106 kts 330°
2026-05-05 21:25 52.16897 20.96507 333 ft 42 kts 360°
2026-05-05 21:25 52.17082 20.96559 336 ft 15 kts 48°
2026-05-05 21:25 52.17085 20.96566 336 ft 0 kts 55°
2026-05-05 21:26 52.17086 20.96568 336 ft 1 kts 55°
2026-05-05 21:27 52.17099 20.96599 336 ft 5 kts 57°
2026-05-05 21:27 52.17113 20.96672 338 ft 6 kts 81°
2026-05-05 21:27 52.17148 20.96746 337 ft 11 kts 50°
2026-05-05 21:27 52.17143 20.96854 335 ft 13 kts 152°
2026-05-05 21:28 52.17087 20.96900 334 ft 12 kts 153°
2026-05-05 21:28 52.17047 20.96933 337 ft 8 kts 153°
2026-05-05 21:28 52.16985 20.96989 338 ft 13 kts 150°
2026-05-05 21:28 52.16881 20.97083 337 ft 12 kts 152°
2026-05-05 21:29 52.16834 20.97120 335 ft 7 kts 151°
2026-05-05 21:29 52.16830 20.97138 336 ft 4 kts 109°
2026-05-05 21:29 52.16838 20.97210 334 ft 3 kts 76°
2026-05-05 21:29 52.16842 20.97236 337 ft 1 kts 76°
2026-05-05 21:30 52.16844 20.97251 336 ft 1 kts 76°
2026-05-05 21:30 52.16846 20.97264 338 ft 1 kts 76°
2026-05-05 21:30 52.16848 20.97273 338 ft 1 kts 76°
2026-05-05 21:30 52.16848 20.97276 336 ft 0 kts 76°